Regional Weather Roundup
Issued by NWS

Home | Current Version | Previous Version | Text Only | Print | Product List | Glossary Off
Versions: 1 2 3 4 5 6 7 8 9 10 11 12 13 14 15 16 17 18 19 20 21 22 23 24 25 26 27 28 29 30 31 32 33 34 35 36 37 38 39 40 41 42 43 44 45 46 47 48 49 50

000
ASUS45 KPSR 081810
RWRAZ

ARIZONA HOURLY REGIONAL WEATHER ROUNDUP
NATIONAL WEATHER SERVICE PHOENIX AZ
1100 AM MST THU DEC 08 2016

NOTE: FAIR INDICATES FEW OR NO CLOUDS BELOW 12,000 FEET WITH NO
SIGNIFICANT WEATHER AND/OR OBSTRUCTIONS TO VISIBILITY.

AZZ001>003-036-081900-
NORTHWEST ARIZONA

CITY           SKY/WX    TMP DP  RH WIND       PRES   REMARKS
BULLHEAD CITY  SUNNY     54  12  19 N18       30.30S
KINGMAN        SUNNY     44   8  23 CALM      30.27S
6HR MIN TEMP:  26; 6HR MAX TEMP:  44;

$$

AZZ004>008-015-016-018-081900-
NORTH CENTRAL ARIZONA

CITY           SKY/WX    TMP DP  RH WIND       PRES   REMARKS
GRAND CANYON   MOSUNNY   40  26  57 SW9       30.28S WCI  34
6HR MIN TEMP:  18; 6HR MAX TEMP:  40;

WILLIAMS       CLOUDY    45  18  33 W8        30.28R
PRESCOTT       SUNNY     43  29  57 NE6       30.29R
6HR MIN TEMP:  24; 6HR MAX TEMP:  43;

FLAGSTAFF      SUNNY     40  23  50 SW12      30.28R WCI  33
6HR MIN TEMP:  15; 6HR MAX TEMP:  40;

PAYSON         SUNNY     48  30  49 VRB5      30.32R
PAGE           SUNNY     37   5  26 CALM      30.34S
6HR MIN TEMP:  27; 6HR MAX TEMP:  37;

$$

AZZ009>014-017-081900-
NORTHEAST ARIZONA

CITY           SKY/WX    TMP DP  RH WIND       PRES   REMARKS
WINSLOW        SUNNY     37  11  34 VRB3      30.32F
6HR MIN TEMP:  16; 6HR MAX TEMP:  37;

SAINT JOHNS    SUNNY     38  25  59 CALM      30.29F
6HR MIN TEMP:  16; 6HR MAX TEMP:  38;

WINDOW ROCK    SUNNY     36  13  38 CALM      30.30F
6HR MIN TEMP:  14; 6HR MAX TEMP:  36;

SHOW LOW       SUNNY     45  28  53 S12G21    30.30S
$$

AZZ023-081900-
GREATER PHOENIX AREA

CITY           SKY/WX    TMP DP  RH WIND       PRES   REMARKS
PHOENIX        MOSUNNY   57  38  48 CALM      30.24S
6HR MIN TEMP:  45; 6HR MAX TEMP:  58;

BUCKEYE        SUNNY     55  32  41 CALM      30.27S
GLENDALE       SUNNY     57  39  51 CALM      30.27R
LUKE AFB       SUNNY     58  39  48 CALM      30.24R
6HR MIN TEMP:  42; 6HR MAX TEMP:  58; 6HR PCP: TRACE;

DEER VALLEY    SUNNY     59  40  49 W3        30.24R
6HR MIN TEMP:  42; 6HR MAX TEMP:  59;

SCOTTSDALE     SUNNY     57  41  55 SW3       30.25S
6HR MIN TEMP:  43; 6HR MAX TEMP:  57;

MESA-FALCON    SUNNY    N/A N/A N/A N9        30.22R
MESA-GATEWAY   SUNNY     55  41  58 CALM      30.25
CHANDLER       SUNNY     55  41  58 CALM      30.25R
$$

AZZ027-028-081900-
SOUTHWEST MARICOPA COUNTY AND PINAL COUNTY

CITY           SKY/WX    TMP DP  RH WIND       PRES   REMARKS
CASA GRANDE    NOT AVBL
GILA BEND      FAIR     N/A N/A N/A CALM        N/A
$$

AZZ503-504-507>509-081900-
SOUTHEAST ARIZONA

CITY           SKY/WX    TMP DP  RH WIND       PRES   REMARKS
TUCSON         SUNNY     58  39  49 SE3       30.24F
6HR MIN TEMP:  41; 6HR MAX TEMP:  58;

DAVIS-MONTHAN  SUNNY     60  39  46 CALM      30.23S
6HR MIN TEMP:  38; 6HR MAX TEMP:  60;

RYAN FIELD     SUNNY     57  41  54 CALM      30.25S
NOGALES        SUNNY     57  38  48 CALM      30.24S
6HR MIN TEMP:  33; 6HR MAX TEMP:  57;

SIERRA VISTA   SUNNY     55  35  46 VRB7      30.27S
6HR MIN TEMP:  36; 6HR MAX TEMP:  56;

DOUGLAS        SUNNY     56  35  45 CALM      30.26F
6HR MIN TEMP:  26; 6HR MAX TEMP:  56;

SAFFORD        SUNNY     54  32  43 SE7       30.28S
6HR MIN TEMP:  33; 6HR MAX TEMP:  55;

$$

AZZ020-021-025-026-031-081900-
SOUTHWEST ARIZONA

CITY           SKY/WX    TMP DP  RH WIND       PRES   REMARKS
YUMA           SUNNY     61  15  16 N8        30.26R
6HR MIN TEMP:  46; 6HR MAX TEMP:  61;

$$

CAZ031-033-041-043-047-048-061-081900-
SOUTHERN CALIFORNIA

CITY           SKY/WX    TMP DP  RH WIND       PRES   REMARKS
DOWNTOWN L.A.  SUNNY     61  47  59 CALM      30.25R
6HR MIN TEMP:  49; 6HR MAX TEMP:  61;

L.A. AIRPORT   MOSUNNY   63  43  48 CALM      30.26R
6HR MIN TEMP:  50; 6HR MAX TEMP:  63;

SAN DIEGO      MOSUNNY   59  47  64 CALM      30.27R
6HR MIN TEMP:  50; 6HR MAX TEMP:  60;

BURBANK        SUNNY     59  38  45 CALM      30.25R
6HR MIN TEMP:  46; 6HR MAX TEMP:  59;

ONTARIO        MOSUNNY   57  42  57 E5        30.26R
6HR MIN TEMP:  45; 6HR MAX TEMP:  57;

RIVERSIDE      MOSUNNY   59  44  57 CALM      30.26R
6HR MIN TEMP:  44; 6HR MAX TEMP:  59;

PALM SPRINGS   MOSUNNY   61  29  29 VRB3      30.28R
6HR MIN TEMP:  45; 6HR MAX TEMP:  61;

EL CENTRO NAS  MOSUNNY   60  24  25 VRB3      30.28S
6HR MIN TEMP:  40; 6HR MAX TEMP:  60;

IMPERIAL       SUNNY     60  28  29 SW5       30.26S
6HR MIN TEMP:  40; 6HR MAX TEMP:  60;

BLYTHE         SUNNY     54  12  18 SE3       30.29R
6HR MIN TEMP:  39; 6HR MAX TEMP:  54;

NEEDLES        SUNNY     54  14  20 N8        30.30S
6HR MIN TEMP:  41; 6HR MAX TEMP:  55;

$$

NVZ020-UTZ003-081900-
SOUTHERN NEVADA-UTAH

CITY           SKY/WX    TMP DP  RH WIND       PRES   REMARKS
LAS VEGAS      MOSUNNY   47   5  18 CALM      30.29S
6HR MIN TEMP:  36; 6HR MAX TEMP:  48;

SALT LAKE CITY CLOUDY    28   6  39 E6        30.26R WCI  22
6HR MIN TEMP:  21; 6HR MAX TEMP:  28;

$$

NMZ009-TXZ055-081900-
NEW MEXICO-WEST TEXAS

CITY           SKY/WX    TMP DP  RH WIND       PRES   REMARKS
ALBUQUERQUE    MOSUNNY   31  14  49 CALM      30.40F
6HR MIN TEMP:  23; 6HR MAX TEMP:  31;

EL PASO        PTSUNNY   38  24  57 E9        30.41F WCI  31
6HR MIN TEMP:  36; 6HR MAX TEMP:  39;

$$


........................KEY........................
SKY/WX - SKY CONDITION/WEATHER
TMP    - TEMPERATURE IN FAHRENHEIT
DP     - DEW POINT IN FAHRENHEIT
RH     - RELATIVE HUMIDITY IN PERCENT
WIND   - DIRECTION AND SPEED IN MILES PER HOUR (MPH)
VRB    - VARIABLE WIND DIRECTION
PRES   - MEAN SEA LEVEL PRESSURE IN INCHES OF MERCURY
         F - FALLING PRESSURE   R - RISING PRESSURE
         S - STEADY PRESSURE
VSB    - VISIBILITY IN MILES
HX     - HEAT INDEX IN FAHRENHEIT
WCI    - WIND CHILL INDEX IN FAHRENHEIT
TC     - TEMPERATURE IN CELSIUS WHICH IS ALSO KNOWN AS
         TEMPERATURE IN CENTIGRADE
AFB    - AIR FORCE BASE
         LUKE AFB IS LUKE AIR FORCE BASE
         DAVIS-MONTHAN IS DAVIS-MONTHAN AIR FORCE BASE
NAS    - NAVAL AIR STATION
         EL CENTRO NAS IS EL CENTRO NAVAL AIR STATION
N/A    - NOT AVAILABLE




USA.gov is the U.S. government's official web portal to all federal, state and local government web resources and services.